Location: Bradley
(41.1420°N, 87.8610°W)
Time: 12:51:24
(UTC-06:00)

N. Korean satellite - Visible Passes

Search period start: 23 February 2019 00:00
Search period end: 05 March 2019 00:00
Orbit: 456 x 510 km, 97.2° (Epoch: 23 February)

Date Brightness Start Highest point End Pass type
(mag) Time Alt. Az. Time Alt. Az. Time Alt. Az.
23 Feb 9.7 05:15:05 10° NE 05:17:26 17° E 05:19:46 10° SE visible
25 Feb 6.9 05:58:04 10° NNE 06:01:31 68° E 06:04:54 10° S visible
25 Feb 9.9 18:07:45 10° SW 18:10:24 19° W 18:13:02 10° NW visible
26 Feb 8.7 05:33:37 10° NNE 05:36:42 30° E 05:39:45 10° SSE visible
27 Feb 9.9 05:09:47 10° ENE 05:11:48 15° E 05:13:49 10° SE visible
28 Feb 10.6 18:28:40 10° WSW 18:29:41 11° W 18:30:42 10° WNW visible
01 Mar 7.3 05:52:30 10° NNE 05:55:52 56° E 05:59:15 10° S visible
02 Mar 9.1 05:28:07 10° NE 05:31:03 26° E 05:33:58 10° SSE visible
03 Mar 10.1 05:04:31 10° ENE 05:06:07 13° E 05:07:43 10° ESE visible
04 Mar 10.4 18:22:24 10° WSW 18:24:01 13° W 18:25:37 10° WNW visible
